Content
SEND FEEDBACK

Daily
Averages
Monthly
Summary
United States of America

CASTLE HAYNE, NORTH CAROLINA


Home > North America > United States > North Carolina
Elevation: 35 feet     Latitude: 34 19N     Longitude: 077 55W

WEATHER
 
SELECT A DAY
Number of Records: 211,723;   Date Range: 1/1/95 - 10/1/14
 
SHARE

PRINT THIS DATA

[ ← Previous Day ]
WEATHER ALMANAC - APRIL 3, 2013
[ Next Day → ]
[ °C ]   °F
Weather ElementAverageHighLow
Temperature51.9 °F57.9 °F (2:53 pm)46.9 °F (1:53 am)
Dewpoint36.4 °F45 °F (3:53 am)26.1 °F (1:53 pm)
Humidity58.4 %86 % (1:53 am)30 % (1:53 pm)
Barometer30.21 in30.28 in (11:53 pm)30.12 in (3:53 am)
Wind Speed8.1 mph16.1 mph (10:53 am)
Wind Gust20.7 mph (10:53 am)
Weather ElementAverage
Visibility10 mi
Wind DirectionNE (50 °)

Weather ElementTotal
Precipitation---
Heating Degree Days12.6 (Base 65)
Growing Degree Days2.4 (Base 50)
Averaged from 23 records on April 3, 2013
WEATHER CONDITIONS BREAKOUT
WIND DIRECTION BREAKOUT
WEATHER BY HOUR - APRIL 3, 2013
[ °C ]   °F
Local TimeTemperatureDewpointHumidityBarometerVisibilityWind DirectionWind SpeedGust SpeedPrecipitationEventsConditions
1:53 AM46.9 °F43.0 °F86 %30.13 in10.0 miNE (40°)3.5 mphOvercast
2:53 AM48.0 °F44.1 °F86 %30.13 in10.0 miNorth (10°)5.8 mphOvercast
3:53 AM48.9 °F45.0 °F86 %30.12 in10.0 miNorth (10°)3.5 mphOvercast
4:53 AM50.0 °F45.0 °F83 %30.13 in10.0 miNorth (10°)3.5 mphOvercast
5:53 AM48.9 °F44.1 °F83 %30.14 in10.0 miNNE (20°)4.6 mphOvercast
6:53 AM50.0 °F43.0 °F77 %30.16 in10.0 miNNE (20°)9.2 mphOvercast
7:53 AM50.0 °F37.9 °F63 %30.18 in10.0 miNNE (20°)12.7 mphOvercast
8:53 AM51.1 °F33.1 °F50 %30.22 in10.0 miNNE (30°)10.4 mphOvercast
9:53 AM53.1 °F28.0 °F38 %30.24 in10.0 miNorth (10°)15.0 mphOvercast
10:53 AM54.0 °F30.0 °F40 %30.24 in10.0 miNNE (30°)16.1 mph20.7 mphOvercast
11:53 AM54.0 °F30.0 °F40 %30.25 in10.0 miNE (40°)12.7 mphOvercast
12:53 PM55.9 °F27.0 °F33 %30.25 in10.0 miNNE (20°)13.8 mphOvercast
1:53 PM57.0 °F26.1 °F30 %30.22 in9.0 miNNE (30°)15.0 mphMostly Cloudy
2:53 PM57.9 °F28.0 °F32 %30.21 in10.0 miNNE (20°)11.5 mphOvercast
3:53 PM55.9 °F33.1 °F42 %30.21 in10.0 miEast (90°)9.2 mphClear
4:53 PM55.0 °F34.0 °F45 %30.21 in10.0 miESE (110°)10.4 mphClear
5:53 PM55.0 °F35.1 °F47 %30.22 in10.0 miESE (120°)6.9 mphClear
6:53 PM53.1 °F36.0 °F52 %30.23 in10.0 miENE (70°)4.6 mphClear
7:53 PM51.1 °F36.0 °F56 %30.24 in10.0 miEast (100°)4.6 mphClear
8:53 PM50.0 °F37.9 °F63 %30.26 in10.0 miESE (110°)3.5 mphClear
9:53 PM50.0 °F39.0 °F66 %30.27 in10.0 miEast (90°)3.5 mphScattered Clouds
10:53 PM50.0 °F39.9 °F68 %30.27 in10.0 miEast (90°)3.5 mphClear
11:53 PM48.9 °F42.1 °F77 %30.28 in10.0 miENE (60°)3.5 mphClear
Hourly data recorded from KILM, located miles away from Castle Hayne, North Carolina







STORIES FROM OUR PARTNERS